Location: Astronomy Club of Akron Observatory
(40.9700°N, 81.5606°W)
Time: 07:23:47
(UTC-04:00)

Hubble Space Telescope - Pass Details

Date: 14 June 2018
Orbit: 537 x 541 km, 28.5° (Epoch: 18 August)

Event Time Altitude Azimuth Distance (km) Brightness Sun altitude
Rises 21:28:09 0° 229° (SW) 2,668 4.5 -5.2°
Reaches altitude 10° 21:31:27 10° 201° (SSW) 1,778 3.3 -5.7°
Maximum altitude 21:33:24 13° 173° (S) 1,591 2.8 -6.0°
Drops below altitude 10° 21:35:20 10° 145° (SE) 1,778 2.8 -6.3°
Enters shadow 21:36:08 - 136° (SE) 1,945 2.9 -6.4°
